| time (UTC) | temp F | wind direction | speed MPH | gust MPH | rain 1hr in | rain 24hr in | rain mn in | humidity % | barometer mb |
| 20260505093142 | 51 | 226 | 2.0 | 5.0 | 0.00 | 0.00 | 0.00 | 91 | 1010.6 |
| 20260505092645 | 50 | 235 | 2.0 | 5.0 | 0.00 | 0.00 | 0.00 | 91 | 1010.6 |
| 20260505092141 | 50 | 194 | 2.0 | 5.0 | 0.00 | 0.00 | 0.00 | 90 | 1010.6 |
| 20260505091642 | 51 | 200 | 2.0 | 6.0 | 0.00 | 0.00 | 0.00 | 90 | 1010.7 |
| 20260505091141 | 50 | 127 | 2.0 | 6.0 | 0.00 | 0.00 | 0.00 | 90 | 1010.8 |
| 20260505090643 | 51 | 237 | 3.0 | 9.0 | 0.00 | 0.00 | 0.00 | 90 | 1010.8 |
| 20260505090141 | 51 | 226 | 3.0 | 9.0 | 0.00 | 0.00 | 0.00 | 90 | 1010.7 |
| 20260505085642 | 51 | 230 | 3.0 | 6.0 | 0.00 | 0.00 | 0.00 | 90 | 1010.7 |
| 20260505085139 | 51 | 237 | 2.0 | 5.0 | 0.00 | 0.00 | 0.00 | 90 | 1010.7 |
| 20260505084640 | 51 | 210 | 2.0 | 5.0 | 0.00 | 0.00 | 0.00 | 89 | 1010.6 |
| 20260505084139 | 51 | 212 | 2.0 | 8.0 | 0.00 | 0.00 | 0.00 | 89 | 1010.7 |
| 20260505083640 | 51 | 248 | 2.0 | 8.0 | 0.00 | 0.00 | 0.00 | 89 | 1010.5 |
| 20260505083137 | 51 | 242 | 2.0 | 6.0 | 0.00 | 0.00 | 0.00 | 89 | 1010.6 |
| 20260505082720 | 51 | 227 | 3.0 | 6.0 | 0.00 | 0.00 | 0.00 | 89 | 1010.6 |
| 20260505081638 | 51 | 238 | 2.0 | 8.0 | 0.00 | 0.00 | 0.00 | 89 | 1010.7 |
| 20260505081136 | 51 | 206 | 2.0 | 8.0 | 0.00 | 0.00 | 0.00 | 89 | 1010.7 |
| 20260505080637 | 51 | 196 | 2.0 | 7.0 | 0.00 | 0.00 | 0.00 | 89 | 1010.8 |
| 20260505080134 | 51 | 224 | 2.0 | 7.0 | 0.00 | 0.00 | 0.00 | 88 | 1010.7 |
| 20260505075634 | 51 | 269 | 2.0 | 4.0 | 0.00 | 0.00 | 0.00 | 88 | 1010.8 |
| 20260505075432 | 51 | 204 | 2.0 | 5.0 | 0.00 | 0.00 | 0.00 | 88 | 1010.7 |
| 20260505074633 | 51 | 240 | 2.0 | 5.0 | 0.00 | 0.00 | 0.00 | 88 | 1010.7 |
| 20260505074133 | 51 | 249 | 2.0 | 5.0 | 0.00 | 0.00 | 0.00 | 88 | 1010.8 |
| 20260505073634 | 51 | 231 | 2.0 | 6.0 | 0.00 | 0.00 | 0.00 | 87 | 1010.9 |
| 20260505073134 | 51 | 234 | 2.0 | 6.0 | 0.00 | 0.00 | 0.00 | 87 | 1010.9 |
| 20260505072632 | 51 | 249 | 3.0 | 5.0 | 0.00 | 0.00 | 0.00 | 87 | 1010.9 |
| 20260505072129 | 51 | 261 | 3.0 | 8.0 | 0.00 | 0.00 | 0.00 | 86 | 1010.9 |
| 20260505071928 | 51 | 246 | 3.0 | 8.0 | 0.00 | 0.00 | 0.00 | 86 | 1010.9 |
| 20260505071130 | 51 | 242 | 2.0 | 7.0 | 0.00 | 0.00 | 0.00 | 86 | 1010.8 |
| 20260505070631 | 51 | 238 | 2.0 | 5.0 | 0.00 | 0.00 | 0.00 | 86 | 1010.9 |
| 20260505070426 | 52 | 221 | 2.0 | 6.0 | 0.00 | 0.00 | 0.00 | 85 | 1010.9 |
| 20260505065630 | 52 | 253 | 2.0 | 6.0 | 0.00 | 0.00 | 0.00 | 85 | 1010.9 |
| 20260505065130 | 52 | 251 | 2.0 | 5.0 | 0.00 | 0.00 | 0.00 | 85 | 1010.9 |
| 20260505064628 | 52 | 234 | 2.0 | 5.0 | 0.00 | 0.00 | 0.00 | 84 | 1011.0 |
| 20260505064422 | 52 | 188 | 3.0 | 5.0 | 0.00 | 0.00 | 0.00 | 84 | 1011.0 |
| 20260505063629 | 52 | 233 | 3.0 | 6.0 | 0.00 | 0.00 | 0.00 | 84 | 1011.0 |
| 20260505063423 | 52 | 243 | 3.0 | 8.0 | 0.00 | 0.00 | 0.00 | 83 | 1011.0 |
| 20260505062626 | 52 | 179 | 3.0 | 9.0 | 0.00 | 0.00 | 0.00 | 83 | 1010.9 |
| 20260505062128 | 52 | 188 | 3.0 | 9.0 | 0.00 | 0.00 | 0.00 | 83 | 1010.9 |
| 20260505061626 | 53 | 217 | 3.0 | 12.0 | 0.00 | 0.00 | 0.00 | 83 | 1011.0 |
| 20260505061123 | 53 | 221 | 3.0 | 12.0 | 0.00 | 0.00 | 0.00 | 83 | 1011.0 |
| 20260505060935 | 53 | 229 | 3.0 | 10.0 | 0.00 | 0.00 | 0.00 | 83 | 1011.1 |
| 20260505060124 | 53 | 232 | 2.0 | 10.0 | 0.00 | 0.00 | 0.00 | 83 | 1011.1 |
| 20260505055623 | 53 | 211 | 2.0 | 5.0 | 0.00 | 0.00 | 0.00 | 83 | 1011.0 |
| 20260505055123 | 52 | 226 | 3.0 | 6.0 | 0.00 | 0.00 | 0.00 | 83 | 1010.9 |
| 20260505054921 | 53 | 217 | 3.0 | 9.0 | 0.00 | 0.00 | 0.00 | 82 | 1011.0 |
| 20260505054124 | 53 | 238 | 3.0 | 9.0 | 0.00 | 0.00 | 0.00 | 82 | 1011.0 |
| 20260505053624 | 53 | 242 | 3.0 | 7.0 | 0.00 | 0.00 | 0.00 | 82 | 1010.9 |
| 20260505053124 | 53 | 158 | 3.0 | 7.0 | 0.00 | 0.00 | 0.00 | 81 | 1010.9 |
| 20260505052623 | 53 | 231 | 3.0 | 7.0 | 0.00 | 0.00 | 0.00 | 81 | 1010.9 |
| 20260505052429 | 53 | 224 | 3.0 | 8.0 | 0.00 | 0.00 | 0.00 | 81 | 1010.9 |
| 20260505051623 | 53 | 241 | 3.0 | 8.0 | 0.00 | 0.00 | 0.00 | 81 | 1011.0 |
| 20260505051122 | 53 | 238 | 3.0 | 7.0 | 0.00 | 0.00 | 0.00 | 80 | 1011.1 |
| 20260505050618 | 53 | 160 | 3.0 | 8.0 | 0.00 | 0.00 | 0.00 | 80 | 1011.0 |
| 20260505050113 | 53 | 259 | 3.0 | 8.0 | 0.00 | 0.00 | 0.00 | 80 | 1011.0 |
| 20260505041604 | 53 | 236 | 3.0 | 7.0 | 0.00 | 0.00 | 0.00 | 79 | 1011.1 |
| 20260505041104 | 53 | 209 | 3.0 | 8.0 | 0.00 | 0.00 | 0.00 | 79 | 1011.1 |
| 20260505040603 | 53 | 207 | 3.0 | 9.0 | 0.00 | 0.00 | 0.00 | 78 | 1011.0 |
| 20260505040104 | 53 | 238 | 3.0 | 9.0 | 0.00 | 0.00 | 0.00 | 78 | 1011.0 |
| 20260505035604 | 53 | 264 | 3.0 | 11.0 | 0.00 | 0.00 | 0.00 | 78 | 1011.0 |
| 20260505035105 | 54 | 214 | 3.0 | 11.0 | 0.00 | 0.00 | 0.00 | 78 | 1011.1 |
| 20260505034605 | 54 | 135 | 3.0 | 8.0 | 0.00 | 0.00 | 0.00 | 77 | 1011.0 |
| 20260505034103 | 54 | 221 | 3.0 | 8.0 | 0.00 | 0.00 | 0.00 | 77 | 1011.0 |
| 20260505033903 | 54 | 254 | 3.0 | 8.0 | 0.00 | 0.00 | 0.00 | 77 | 1011.1 |
| 20260505033101 | 54 | 122 | 4.0 | 11.0 | 0.00 | 0.00 | 0.00 | 76 | 1011.0 |
| 20260505032603 | 54 | 224 | 3.0 | 11.0 | 0.00 | 0.00 | 0.00 | 76 | 1011.0 |
| 20260505032102 | 54 | 240 | 3.0 | 9.0 | 0.00 | 0.00 | 0.00 | 76 | 1010.9 |
| 20260505031601 | 54 | 167 | 3.0 | 10.0 | 0.00 | 0.00 | 0.00 | 76 | 1011.0 |
| 20260505031103 | 54 | 225 | 3.0 | 12.0 | 0.00 | 0.00 | 0.00 | 76 | 1011.1 |
| 20260505030601 | 54 | 229 | 3.0 | 12.0 | 0.00 | 0.00 | 0.00 | 76 | 1011.2 |
| 20260505030408 | 54 | 252 | 3.0 | 7.0 | 0.00 | 0.00 | 0.00 | 76 | 1011.2 |
| 20260505025859 | 54 | 229 | 3.0 | 7.0 | 0.00 | 0.00 | 0.00 | 76 | 1011.2 |
| 20260505025356 | 54 | 239 | 4.0 | 12.0 | 0.00 | 0.00 | 0.00 | 76 | 1011.2 |
| 20260505024903 | 54 | 227 | 4.0 | 12.0 | 0.00 | 0.00 | 0.00 | 76 | 1011.0 |
| 20260505024354 | 54 | 174 | 3.0 | 9.0 | 0.00 | 0.00 | 0.00 | 75 | 1011.0 |
| 20260505023602 | 54 | 240 | 3.0 | 7.0 | 0.00 | 0.00 | 0.00 | 75 | 1011.1 |
| 20260505023102 | 54 | 241 | 3.0 | 8.0 | 0.00 | 0.00 | 0.00 | 75 | 1011.2 |
| 20260505022601 | 55 | 143 | 3.0 | 10.0 | 0.00 | 0.00 | 0.00 | 75 | 1011.1 |
| 20260505022101 | 55 | 114 | 3.0 | 10.0 | 0.00 | 0.00 | 0.00 | 75 | 1011.2 |
| 20260505021603 | 55 | 220 | 4.0 | 11.0 | 0.00 | 0.00 | 0.00 | 74 | 1011.3 |
| 20260505021103 | 55 | 214 | 3.0 | 11.0 | 0.00 | 0.00 | 0.00 | 74 | 1011.2 |
| 20260505020603 | 55 | 221 | 3.0 | 8.0 | 0.00 | 0.00 | 0.00 | 74 | 1011.2 |
| 20260505015912 | 55 | 208 | 3.0 | 9.0 | 0.00 | 0.00 | 0.00 | 73 | 1011.2 |
| 20260505015104 | 55 | 198 | 3.0 | 9.0 | 0.00 | 0.00 | 0.00 | 72 | 1011.2 |
| 20260505014606 | 56 | 264 | 3.0 | 7.0 | 0.00 | 0.00 | 0.00 | 72 | 1011.1 |
| 20260505014106 | 56 | 229 | 3.0 | 8.0 | 0.00 | 0.00 | 0.00 | 72 | 1011.1 |
| 20260505013605 | 56 | 224 | 3.0 | 11.0 | 0.00 | 0.00 | 0.00 | 71 | 1011.0 |
| 20260505013104 | 56 | 247 | 4.0 | 13.0 | 0.00 | 0.00 | 0.00 | 70 | 1010.9 |
| 20260505012602 | 56 | 259 | 4.0 | 13.0 | 0.00 | 0.00 | 0.00 | 70 | 1010.9 |
| 20260505012358 | 56 | 229 | 4.0 | 10.0 | 0.00 | 0.00 | 0.00 | 70 | 1010.7 |
| 20260505011604 | 56 | 197 | 4.0 | 8.0 | 0.00 | 0.00 | 0.00 | 69 | 1010.7 |
| 20260505011356 | 56 | 219 | 3.0 | 11.0 | 0.00 | 0.00 | 0.00 | 69 | 1010.7 |
| 20260505010603 | 56 | 223 | 4.0 | 13.0 | 0.00 | 0.00 | 0.00 | 68 | 1010.6 |
| 20260505010103 | 56 | 248 | 4.0 | 13.0 | 0.00 | 0.00 | 0.00 | 68 | 1010.5 |
| 20260505005915 | 57 | 236 | 4.0 | 9.0 | 0.00 | 0.00 | 0.00 | 67 | 1010.4 |
| 20260505005102 | 57 | 230 | 4.0 | 10.0 | 0.00 | 0.00 | 0.00 | 66 | 1010.3 |
| 20260505004602 | 57 | 85 | 4.0 | 10.0 | 0.00 | 0.00 | 0.00 | 65 | 1010.3 |
| 20260505004356 | 57 | 214 | 4.0 | 13.0 | 0.00 | 0.00 | 0.00 | 64 | 1010.1 |
| 20260505003603 | 57 | 222 | 3.0 | 13.0 | 0.00 | 0.00 | 0.00 | 63 | 1009.9 |
| 20260505003102 | 58 | 146 | 4.0 | 11.0 | 0.00 | 0.00 | 0.00 | 62 | 1009.8 |
| 20260505002603 | 58 | 195 | 4.0 | 11.0 | 0.00 | 0.00 | 0.00 | 61 | 1009.6 |
| 20260505002103 | 58 | 154 | 3.0 | 11.0 | 0.00 | 0.00 | 0.00 | 61 | 1009.5 |
| 20260505001605 | 58 | 234 | 3.0 | 10.0 | 0.00 | 0.00 | 0.00 | 60 | 1009.5 |
| 20260505001102 | 58 | 170 | 4.0 | 12.0 | 0.00 | 0.00 | 0.00 | 60 | 1009.4 |
| 20260505000604 | 59 | 212 | 4.0 | 12.0 | 0.00 | 0.00 | 0.00 | 59 | 1009.4 |
| 20260504235603 | 59 | 214 | 4.0 | 16.0 | 0.00 | 0.00 | 0.00 | 58 | 1009.4 |
| 20260504235102 | 60 | 227 | 4.0 | 12.0 | 0.00 | 0.00 | 0.00 | 57 | 1009.3 |
| 20260504234602 | 60 | 238 | 4.0 | 12.0 | 0.00 | 0.00 | 0.00 | 56 | 1009.2 |
| 20260504234102 | 60 | 189 | 4.0 | 11.0 | 0.00 | 0.00 | 0.00 | 56 | 1009.1 |
| 20260504233602 | 60 | 193 | 5.0 | 14.0 | 0.00 | 0.00 | 0.00 | 55 | 1009.1 |
| 20260504233103 | 61 | 234 | 4.0 | 14.0 | 0.00 | 0.00 | 0.00 | 54 | 1008.9 |
| 20260504232604 | 61 | 220 | 3.0 | 10.0 | 0.00 | 0.00 | 0.00 | 54 | 1008.9 |
| 20260504232104 | 62 | 238 | 4.0 | 10.0 | 0.00 | 0.00 | 0.00 | 53 | 1008.8 |
| 20260504231944 | 62 | 238 | 4.0 | 8.0 | 0.00 | 0.00 | 0.00 | 53 | 1008.7 |
| 20260504230856 | 62 | 130 | 5.0 | 11.0 | 0.00 | 0.00 | 0.00 | 51 | 1008.5 |
| 20260504230107 | 63 | 154 | 4.0 | 11.0 | 0.00 | 0.00 | 0.00 | 51 | 1008.4 |
| 20260504225605 | 63 | 170 | 4.0 | 15.0 | 0.00 | 0.00 | 0.00 | 51 | 1008.3 |
| 20260504225108 | 63 | 210 | 4.0 | 15.0 | 0.00 | 0.00 | 0.00 | 50 | 1008.2 |
| 20260504224605 | 64 | 181 | 5.0 | 15.0 | 0.00 | 0.00 | 0.00 | 50 | 1008.1 |
| 20260504224107 | 64 | 250 | 5.0 | 15.0 | 0.00 | 0.00 | 0.00 | 49 | 1008.1 |
| 20260504223604 | 64 | 169 | 5.0 | 13.0 | 0.00 | 0.00 | 0.00 | 49 | 1008.0 |
| 20260504223104 | 65 | 240 | 5.0 | 19.0 | 0.00 | 0.00 | 0.00 | 49 | 1008.0 |
| 20260504222602 | 65 | 98 | 4.0 | 19.0 | 0.00 | 0.00 | 0.00 | 48 | 1007.7 |
| 20260504222102 | 65 | 238 | 4.0 | 17.0 | 0.00 | 0.00 | 0.00 | 48 | 1007.8 |
| 20260504221600 | 65 | 148 | 5.0 | 18.0 | 0.00 | 0.00 | 0.00 | 48 | 1007.8 |
| 20260504221053 | 66 | 229 | 5.0 | 18.0 | 0.00 | 0.00 | 0.00 | 47 | 1007.7 |
| 20260504220552 | 66 | 210 | 6.0 | 14.0 | 0.00 | 0.00 | 0.00 | 46 | 1007.7 |
| 20260504220053 | 66 | 225 | 6.0 | 19.0 | 0.00 | 0.00 | 0.00 | 46 | 1007.8 |
| 20260504215553 | 67 | 136 | 6.0 | 19.0 | 0.00 | 0.00 | 0.00 | 45 | 1007.7 |
| 20260504215348 | 67 | 243 | 6.0 | 15.0 | 0.00 | 0.00 | 0.00 | 44 | 1007.9 |
| 20260504214630 | 67 | 302 | 6.0 | 14.0 | 0.00 | 0.00 | 0.00 | 45 | 1007.9 |
| 20260504213554 | 68 | 196 | 5.0 | 13.0 | 0.00 | 0.00 | 0.00 | 44 | 1007.9 |
| 20260504213051 | 68 | 226 | 4.0 | 11.0 | 0.00 | 0.00 | 0.00 | 42 | 1007.6 |
| 20260504212552 | 68 | 205 | 5.0 | 16.0 | 0.00 | 0.00 | 0.00 | 43 | 1007.6 |
| 20260504212049 | 68 | 185 | 5.0 | 16.0 | 0.00 | 0.00 | 0.00 | 42 | 1007.5 |
| 20260504211549 | 68 | 191 | 5.0 | 14.0 | 0.00 | 0.00 | 0.00 | 42 | 1007.5 |
| 20260504211049 | 68 | 243 | 5.0 | 18.0 | 0.00 | 0.00 | 0.00 | 42 | 1007.5 |
| 20260504210549 | 68 | 160 | 6.0 | 18.0 | 0.00 | 0.00 | 0.00 | 42 | 1007.6 |
| 20260504210047 | 68 | 143 | 6.0 | 18.0 | 0.00 | 0.00 | 0.00 | 41 | 1007.5 |
| 20260504205546 | 69 | 230 | 5.0 | 18.0 | 0.00 | 0.00 | 0.00 | 41 | 1007.5 |
| 20260504205048 | 68 | 233 | 5.0 | 13.0 | 0.00 | 0.00 | 0.00 | 40 | 1007.5 |
| 20260504204544 | 68 | 211 | 5.0 | 16.0 | 0.00 | 0.00 | 0.00 | 40 | 1007.4 |
| 20260504204044 | 69 | 223 | 5.0 | 16.0 | 0.00 | 0.00 | 0.00 | 40 | 1007.6 |
| 20260504203544 | 69 | 129 | 4.0 | 11.0 | 0.00 | 0.00 | 0.00 | 40 | 1007.6 |
| 20260504203045 | 69 | 217 | 5.0 | 13.0 | 0.00 | 0.00 | 0.00 | 40 | 1007.7 |
| 20260504202842 | 69 | 221 | 5.0 | 16.0 | 0.00 | 0.00 | 0.00 | 40 | 1007.6 |
| 20260504202041 | 69 | 294 | 6.0 | 16.0 | 0.00 | 0.00 | 0.00 | 40 | 1007.5 |
| 20260504201542 | 69 | 240 | 5.0 | 14.0 | 0.00 | 0.00 | 0.00 | 39 | 1007.5 |
| 20260504201340 | 70 | 153 | 5.0 | 12.0 | 0.00 | 0.00 | 0.00 | 38 | 1007.6 |
| 20260504200837 | 70 | 184 | 5.0 | 18.0 | 0.00 | 0.00 | 0.00 | 38 | 1007.5 |
| 20260504200041 | 70 | 210 | 5.0 | 18.0 | 0.00 | 0.00 | 0.00 | 39 | 1007.5 |
| 20260504195538 | 71 | 240 | 4.0 | 13.0 | 0.00 | 0.00 | 0.00 | 37 | 1007.3 |
| 20260504195039 | 72 | 136 | 4.0 | 11.0 | 0.00 | 0.00 | 0.00 | 34 | 1007.4 |
| 20260504194539 | 71 | 232 | 4.0 | 11.0 | 0.00 | 0.00 | 0.00 | 33 | 1007.5 |
| 20260504194039 | 72 | 234 | 5.0 | 19.0 | 0.00 | 0.00 | 0.00 | 33 | 1007.4 |
| 20260504193835 | 71 | 184 | 6.0 | 19.0 | 0.00 | 0.00 | 0.00 | 33 | 1007.5 |
| 20260504193036 | 72 | 232 | 5.0 | 15.0 | 0.00 | 0.00 | 0.00 | 31 | 1007.4 |
| 20260504192536 | 72 | 224 | 5.0 | 15.0 | 0.00 | 0.00 | 0.00 | 32 | 1007.4 |
| 20260504192033 | 72 | 219 | 5.0 | 12.0 | 0.00 | 0.00 | 0.00 | 31 | 1007.5 |
| 20260504191533 | 71 | 215 | 5.0 | 13.0 | 0.00 | 0.00 | 0.00 | 32 | 1007.4 |
| 20260504191329 | 71 | 240 | 5.0 | 13.0 | 0.00 | 0.00 | 0.00 | 32 | 1007.5 |
| 20260504190531 | 71 | 102 | 4.0 | 12.0 | 0.00 | 0.00 | 0.00 | 32 | 1007.5 |
| 20260504190029 | 71 | 205 | 4.0 | 9.0 | 0.00 | 0.00 | 0.00 | 32 | 1007.6 |
| 20260504185529 | 72 | 263 | 4.0 | 11.0 | 0.00 | 0.00 | 0.00 | 31 | 1007.5 |
| 20260504185028 | 72 | 231 | 4.0 | 14.0 | 0.00 | 0.00 | 0.00 | 33 | 1007.6 |
| 20260504184528 | 72 | 238 | 4.0 | 14.0 | 0.00 | 0.00 | 0.00 | 32 | 1007.6 |
| 20260504184029 | 71 | 208 | 5.0 | 11.0 | 0.00 | 0.00 | 0.00 | 32 | 1007.4 |
| 20260504183529 | 71 | 137 | 6.0 | 19.0 | 0.00 | 0.00 | 0.00 | 33 | 1007.8 |
| 20260504183029 | 71 | 203 | 5.0 | 19.0 | 0.00 | 0.00 | 0.00 | 32 | 1007.7 |
| 20260504182527 | 71 | 229 | 4.0 | 13.0 | 0.00 | 0.00 | 0.00 | 32 | 1007.9 |
| 20260504182026 | 72 | 232 | 4.0 | 10.0 | 0.00 | 0.00 | 0.00 | 32 | 1007.9 |
| 20260504181524 | 71 | 190 | 4.0 | 9.0 | 0.00 | 0.00 | 0.00 | 33 | 1007.7 |
| 20260504181024 | 72 | 229 | 4.0 | 19.0 | 0.00 | 0.00 | 0.00 | 33 | 1007.8 |
| 20260504180842 | 71 | 223 | 4.0 | 19.0 | 0.00 | 0.00 | 0.00 | 32 | 1007.8 |
| 20260504180022 | 71 | 250 | 4.0 | 13.0 | 0.00 | 0.00 | 0.00 | 33 | 1007.9 |
| 20260504175518 | 71 | 224 | 5.0 | 14.0 | 0.00 | 0.00 | 0.00 | 32 | 1007.7 |
| 20260504175019 | 71 | 136 | 4.0 | 14.0 | 0.00 | 0.00 | 0.00 | 33 | 1007.9 |
| 20260504174552 | 70 | 152 | 4.0 | 8.0 | 0.00 | 0.00 | 0.00 | 32 | 1007.7 |
| 20260504173516 | 70 | 115 | 7.0 | 22.0 | 0.00 | 0.00 | 0.00 | 32 | 1007.8 |
| 20260504173018 | 70 | 250 | 6.0 | 18.0 | 0.00 | 0.00 | 0.00 | 32 | 1007.6 |
| 20260504172518 | 70 | 247 | 5.0 | 12.0 | 0.00 | 0.00 | 0.00 | 33 | 1007.7 |
| 20260504172016 | 70 | 250 | 4.0 | 12.0 | 0.00 | 0.00 | 0.00 | 33 | 1007.9 |
| 20260504171516 | 70 | 143 | 4.0 | 9.0 | 0.00 | 0.00 | 0.00 | 33 | 1007.7 |
| 20260504171014 | 70 | 233 | 5.0 | 16.0 | 0.00 | 0.00 | 0.00 | 34 | 1007.8 |
| 20260504170514 | 70 | 255 | 5.0 | 16.0 | 0.00 | 0.00 | 0.00 | 33 | 1007.9 |
| 20260504160304 | 68 | 32 | 5.0 | 14.0 | 0.00 | 0.00 | 0.00 | 38 | 1008.8 |
| 20260504151006 | 68 | 87 | 4.0 | 13.0 | 0.00 | 0.00 | 0.00 | 37 | 1009.2 |
| 20260504150504 | 68 | 243 | 3.0 | 9.0 | 0.00 | 0.00 | 0.00 | 37 | 1009.1 |
| 20260504141001 | 65 | 224 | 2.0 | 6.0 | 0.00 | 0.00 | 0.00 | 41 | 1010.0 |
| 20260504140504 | 64 | 225 | 2.0 | 8.0 | 0.00 | 0.00 | 0.00 | 45 | 1010.2 |
| 20260504130454 | 60 | 188 | 2.0 | 5.0 | 0.00 | 0.00 | 0.00 | 47 | 1010.6 |
| 20260504110450 | 47 | 232 | 1.0 | 3.0 | 0.00 | 0.00 | 0.00 | 62 | 1011.2 |
| 20260504100448 | 46 | 236 | 1.0 | 2.0 | 0.00 | 0.00 | 0.00 | 62 | 1011.0 |